| time (UTC) | temp F | wind direction | speed MPH | gust MPH | rain 1hr in | rain 24hr in | rain mn in | humidity % | barometer mb |
| 20260504235404 | 68 | 218 | 5.0 | 9.0 | 0.00 | 0.00 | 0.00 | 36 | 1007.4 |
| 20260504234905 | 68 | 211 | 5.0 | 13.0 | 0.00 | 0.00 | 0.00 | 35 | 1007.3 |
| 20260504233404 | 69 | 236 | 3.0 | 10.0 | 0.00 | 0.00 | 0.00 | 36 | 1007.2 |
| 20260504232904 | 69 | 223 | 5.0 | 13.0 | 0.00 | 0.00 | 0.00 | 35 | 1007.0 |
| 20260504232404 | 69 | 224 | 5.0 | 16.0 | 0.00 | 0.00 | 0.00 | 35 | 1007.0 |
| 20260504231904 | 69 | 233 | 6.0 | 13.0 | 0.00 | 0.00 | 0.00 | 35 | 1006.9 |
| 20260504231405 | 69 | 216 | 8.0 | 17.0 | 0.00 | 0.00 | 0.00 | 35 | 1006.9 |
| 20260504230905 | 70 | 222 | 8.0 | 14.0 | 0.00 | 0.00 | 0.00 | 35 | 1006.8 |
| 20260504230404 | 70 | 211 | 9.0 | 15.0 | 0.00 | 0.00 | 0.00 | 34 | 1006.8 |
| 20260504225905 | 70 | 231 | 6.0 | 13.0 | 0.00 | 0.00 | 0.00 | 34 | 1006.8 |
| 20260504225404 | 70 | 212 | 9.0 | 14.0 | 0.00 | 0.00 | 0.00 | 34 | 1006.8 |
| 20260504224904 | 70 | 228 | 7.0 | 14.0 | 0.00 | 0.00 | 0.00 | 34 | 1006.8 |
| 20260504224404 | 70 | 223 | 7.0 | 15.0 | 0.00 | 0.00 | 0.00 | 35 | 1007.0 |
| 20260504223904 | 71 | 206 | 5.0 | 14.0 | 0.00 | 0.00 | 0.00 | 34 | 1006.9 |
| 20260504223405 | 71 | 210 | 7.0 | 14.0 | 0.00 | 0.00 | 0.00 | 34 | 1006.8 |
| 20260504222905 | 71 | 202 | 7.0 | 12.0 | 0.00 | 0.00 | 0.00 | 34 | 1006.9 |
| 20260504221905 | 71 | 192 | 6.0 | 16.0 | 0.00 | 0.00 | 0.00 | 33 | 1006.9 |
| 20260504221405 | 71 | 218 | 9.0 | 14.0 | 0.00 | 0.00 | 0.00 | 33 | 1006.9 |
| 20260504220905 | 72 | 214 | 8.0 | 13.0 | 0.00 | 0.00 | 0.00 | 33 | 1007.1 |
| 20260504220404 | 71 | 229 | 5.0 | 12.0 | 0.00 | 0.00 | 0.00 | 34 | 1007.2 |
| 20260504215905 | 71 | 216 | 9.0 | 21.0 | 0.00 | 0.00 | 0.00 | 32 | 1007.3 |
| 20260504215404 | 72 | 217 | 8.0 | 21.0 | 0.00 | 0.00 | 0.00 | 32 | 1007.3 |
| 20260504214405 | 72 | 184 | 7.0 | 14.0 | 0.00 | 0.00 | 0.00 | 32 | 1007.3 |
| 20260504213905 | 72 | 210 | 10.0 | 16.0 | 0.00 | 0.00 | 0.00 | 33 | 1007.4 |
| 20260504212404 | 72 | 250 | 10.0 | 22.0 | 0.00 | 0.00 | 0.00 | 32 | 1007.3 |
| 20260504211905 | 72 | 252 | 5.0 | 15.0 | 0.00 | 0.00 | 0.00 | 33 | 1007.4 |
| 20260504211404 | 72 | 213 | 3.0 | 14.0 | 0.00 | 0.00 | 0.00 | 33 | 1007.4 |
| 20260504210904 | 72 | 219 | 7.0 | 17.0 | 0.00 | 0.00 | 0.00 | 33 | 1007.4 |
| 20260504210405 | 72 | 241 | 6.0 | 16.0 | 0.00 | 0.00 | 0.00 | 33 | 1007.4 |
| 20260504205905 | 71 | 203 | 6.0 | 14.0 | 0.00 | 0.00 | 0.00 | 33 | 1007.4 |
| 20260504205405 | 73 | 257 | 11.0 | 17.0 | 0.00 | 0.00 | 0.00 | 32 | 1007.4 |
| 20260504204905 | 73 | 224 | 7.0 | 15.0 | 0.00 | 0.00 | 0.00 | 34 | 1007.3 |
| 20260504204406 | 73 | 244 | 7.0 | 16.0 | 0.00 | 0.00 | 0.00 | 32 | 1007.3 |
| 20260504203905 | 72 | 231 | 6.0 | 16.0 | 0.00 | 0.00 | 0.00 | 32 | 1007.3 |
| 20260504203404 | 73 | 229 | 9.0 | 15.0 | 0.00 | 0.00 | 0.00 | 33 | 1007.4 |
| 20260504202903 | 73 | 233 | 7.0 | 16.0 | 0.00 | 0.00 | 0.00 | 32 | 1007.3 |
| 20260504201904 | 73 | 175 | 2.0 | 10.0 | 0.00 | 0.00 | 0.00 | 30 | 1007.5 |
| 20260504201404 | 73 | 202 | 5.0 | 20.0 | 0.00 | 0.00 | 0.00 | 32 | 1007.5 |
| 20260504200904 | 72 | 199 | 8.0 | 20.0 | 0.00 | 0.00 | 0.00 | 35 | 1007.6 |
| 20260504200403 | 73 | 222 | 10.0 | 18.0 | 0.00 | 0.00 | 0.00 | 32 | 1007.6 |
| 20260504195905 | 73 | 222 | 8.0 | 18.0 | 0.00 | 0.00 | 0.00 | 30 | 1007.6 |
| 20260504195404 | 73 | 242 | 2.0 | 12.0 | 0.00 | 0.00 | 0.00 | 33 | 1007.7 |
| 20260504194904 | 73 | 245 | 6.0 | 15.0 | 0.00 | 0.00 | 0.00 | 32 | 1007.8 |
| 20260504194404 | 72 | 251 | 10.0 | 18.0 | 0.00 | 0.00 | 0.00 | 32 | 1007.7 |
| 20260504193903 | 73 | 210 | 7.0 | 16.0 | 0.00 | 0.00 | 0.00 | 34 | 1007.7 |
| 20260504193403 | 72 | 242 | 9.0 | 18.0 | 0.00 | 0.00 | 0.00 | 33 | 1007.7 |
| 20260504192904 | 72 | 212 | 9.0 | 16.0 | 0.00 | 0.00 | 0.00 | 34 | 1007.8 |
| 20260504192403 | 73 | 230 | 6.0 | 18.0 | 0.00 | 0.00 | 0.00 | 34 | 1007.9 |
| 20260504190904 | 72 | 227 | 12.0 | 20.0 | 0.00 | 0.00 | 0.00 | 31 | 1008.2 |
| 20260504190405 | 72 | 230 | 10.0 | 22.0 | 0.00 | 0.00 | 0.00 | 33 | 1008.2 |
| 20260504185905 | 73 | 225 | 7.0 | 16.0 | 0.00 | 0.00 | 0.00 | 35 | 1008.2 |
| 20260504185404 | 72 | 210 | 8.0 | 17.0 | 0.00 | 0.00 | 0.00 | 34 | 1008.2 |
| 20260504184904 | 72 | 219 | 6.0 | 12.0 | 0.00 | 0.00 | 0.00 | 35 | 1008.3 |
| 20260504184404 | 72 | 235 | 11.0 | 20.0 | 0.00 | 0.00 | 0.00 | 34 | 1008.4 |
| 20260504183905 | 72 | 226 | 3.0 | 12.0 | 0.00 | 0.00 | 0.00 | 36 | 1008.5 |
| 20260504182904 | 71 | 245 | 13.0 | 21.0 | 0.00 | 0.00 | 0.00 | 34 | 1008.6 |
| 20260504182403 | 71 | 219 | 11.0 | 20.0 | 0.00 | 0.00 | 0.00 | 34 | 1008.7 |
| 20260504181404 | 71 | 244 | 12.0 | 22.0 | 0.00 | 0.00 | 0.00 | 33 | 1008.7 |
| 20260504180904 | 71 | 215 | 7.0 | 15.0 | 0.00 | 0.00 | 0.00 | 36 | 1008.9 |
| 20260504175404 | 71 | 221 | 10.0 | 18.0 | 0.00 | 0.00 | 0.00 | 34 | 1009.2 |
| 20260504174904 | 71 | 220 | 10.0 | 20.0 | 0.00 | 0.00 | 0.00 | 34 | 1009.2 |
| 20260504174404 | 70 | 256 | 6.0 | 20.0 | 0.00 | 0.00 | 0.00 | 35 | 1009.3 |
| 20260504173904 | 71 | 238 | 9.0 | 20.0 | 0.00 | 0.00 | 0.00 | 35 | 1009.3 |
| 20260504173404 | 70 | 217 | 9.0 | 20.0 | 0.00 | 0.00 | 0.00 | 36 | 1009.3 |
| 20260504172904 | 70 | 248 | 10.0 | 20.0 | 0.00 | 0.00 | 0.00 | 35 | 1009.3 |
| 20260504172404 | 70 | 267 | 7.0 | 12.0 | 0.00 | 0.00 | 0.00 | 39 | 1009.4 |
| 20260504171904 | 69 | 246 | 6.0 | 15.0 | 0.00 | 0.00 | 0.00 | 35 | 1009.5 |
| 20260504171405 | 69 | 217 | 6.0 | 16.0 | 0.00 | 0.00 | 0.00 | 36 | 1009.5 |
| 20260504170905 | 70 | 226 | 9.0 | 15.0 | 0.00 | 0.00 | 0.00 | 38 | 1009.5 |
| 20260504170404 | 69 | 211 | 12.0 | 23.0 | 0.00 | 0.00 | 0.00 | 35 | 1009.7 |
| 20260504160405 | 68 | 230 | 7.0 | 16.0 | 0.00 | 0.00 | 0.00 | 37 | 1010.5 |
| 20260504150904 | 65 | 202 | 7.0 | 12.0 | 0.00 | 0.00 | 0.00 | 38 | 1011.0 |
| 20260504140404 | 61 | 235 | 11.0 | 18.0 | 0.00 | 0.00 | 0.00 | 43 | 1011.4 |
| 20260504130405 | 57 | 210 | 6.0 | 10.0 | 0.00 | 0.00 | 0.00 | 48 | 1012.0 |
| 20260504110404 | 49 | 209 | 4.0 | 8.0 | 0.00 | 0.00 | 0.00 | 53 | 1012.2 |
| 20260504100404 | 47 | 188 | 1.0 | 3.0 | 0.00 | 0.00 | 0.00 | 57 | 1012.0 |
| 20260504081904 | 49 | 207 | 1.0 | 3.0 | 0.00 | 0.00 | 0.00 | 50 | 1011.7 |
| 20260504080904 | 49 | 231 | 1.0 | 5.0 | 0.00 | 0.00 | 0.00 | 49 | 1011.6 |
| 20260504080404 | 50 | 217 | 2.0 | 7.0 | 0.00 | 0.00 | 0.00 | 48 | 1011.7 |
| 20260504050405 | 50 | 231 | 6.0 | 10.0 | 0.00 | 0.00 | 0.00 | 47 | 1011.0 |
| 20260504045404 | 51 | 221 | 6.0 | 12.0 | 0.00 | 0.00 | 0.00 | 47 | 1011.0 |
| 20260504044904 | 51 | 223 | 7.0 | 13.0 | 0.00 | 0.00 | 0.00 | 47 | 1011.0 |
| 20260504044404 | 51 | 215 | 6.0 | 12.0 | 0.00 | 0.00 | 0.00 | 46 | 1011.0 |
| 20260504043405 | 51 | 218 | 5.0 | 12.0 | 0.00 | 0.00 | 0.00 | 46 | 1010.9 |
| 20260504042904 | 51 | 242 | 6.0 | 10.0 | 0.00 | 0.00 | 0.00 | 46 | 1010.8 |
| 20260504042404 | 51 | 230 | 6.0 | 12.0 | 0.00 | 0.00 | 0.00 | 46 | 1010.8 |
| 20260504041904 | 51 | 230 | 6.0 | 10.0 | 0.00 | 0.00 | 0.00 | 46 | 1010.6 |
| 20260504041404 | 51 | 226 | 6.0 | 10.0 | 0.00 | 0.00 | 0.00 | 46 | 1010.6 |
| 20260504040905 | 51 | 220 | 5.0 | 9.0 | 0.00 | 0.00 | 0.00 | 46 | 1010.6 |
| 20260504040405 | 51 | 221 | 5.0 | 10.0 | 0.00 | 0.00 | 0.00 | 46 | 1010.7 |
| 20260504035905 | 51 | 235 | 3.0 | 9.0 | 0.00 | 0.00 | 0.00 | 46 | 1010.7 |
| 20260504035406 | 51 | 219 | 5.0 | 9.0 | 0.00 | 0.00 | 0.00 | 46 | 1010.7 |
| 20260504034904 | 51 | 233 | 3.0 | 8.0 | 0.00 | 0.00 | 0.00 | 46 | 1010.7 |
| 20260504034404 | 51 | 231 | 4.0 | 8.0 | 0.00 | 0.00 | 0.00 | 45 | 1010.6 |
| 20260504033404 | 51 | 234 | 3.0 | 7.0 | 0.00 | 0.00 | 0.00 | 45 | 1010.7 |
| 20260504032905 | 51 | 228 | 2.0 | 7.0 | 0.00 | 0.00 | 0.00 | 45 | 1010.7 |
| 20260504031905 | 51 | 221 | 2.0 | 6.0 | 0.00 | 0.00 | 0.00 | 44 | 1010.6 |
| 20260504031405 | 51 | 232 | 1.0 | 8.0 | 0.00 | 0.00 | 0.00 | 44 | 1010.6 |
| 20260504030406 | 51 | 232 | 2.0 | 6.0 | 0.00 | 0.00 | 0.00 | 44 | 1010.6 |
| 20260504025905 | 51 | 216 | 4.0 | 8.0 | 0.00 | 0.00 | 0.00 | 44 | 1010.6 |
| 20260504025405 | 51 | 214 | 4.0 | 9.0 | 0.00 | 0.00 | 0.00 | 45 | 1010.6 |
| 20260504024905 | 51 | 224 | 0.0 | 5.0 | 0.00 | 0.00 | 0.00 | 45 | 1010.6 |
| 20260504024404 | 51 | 232 | 0.0 | 1.0 | 0.00 | 0.00 | 0.00 | 43 | 1010.6 |
| 20260504023906 | 51 | 227 | 0.0 | 1.0 | 0.00 | 0.00 | 0.00 | 43 | 1010.6 |
| 20260504023403 | 52 | 221 | 1.0 | 3.0 | 0.00 | 0.00 | 0.00 | 42 | 1010.6 |
| 20260504022904 | 52 | 227 | 1.0 | 7.0 | 0.00 | 0.00 | 0.00 | 41 | 1010.6 |
| 20260504022404 | 52 | 222 | 0.0 | 6.0 | 0.00 | 0.00 | 0.00 | 41 | 1010.7 |
| 20260504021404 | 52 | 230 | 1.0 | 5.0 | 0.00 | 0.00 | 0.00 | 40 | 1010.7 |
| 20260504020904 | 52 | 233 | 1.0 | 6.0 | 0.00 | 0.00 | 0.00 | 40 | 1010.7 |
| 20260504020404 | 52 | 223 | 0.0 | 1.0 | 0.00 | 0.00 | 0.00 | 40 | 1010.7 |
| 20260504015903 | 52 | 212 | 0.0 | 0.0 | 0.00 | 0.00 | 0.00 | 40 | 1010.6 |
| 20260504014904 | 52 | 223 | 0.0 | 1.0 | 0.00 | 0.00 | 0.00 | 40 | 1010.6 |
| 20260504013904 | 53 | 210 | 0.0 | 0.0 | 0.00 | 0.00 | 0.00 | 39 | 1010.5 |
| 20260504012905 | 52 | 225 | 0.0 | 0.0 | 0.00 | 0.00 | 0.00 | 40 | 1010.4 |
| 20260504012404 | 52 | 238 | 0.0 | 0.0 | 0.00 | 0.00 | 0.00 | 41 | 1010.4 |
| 20260504011404 | 52 | 238 | 0.0 | 0.0 | 0.00 | 0.00 | 0.00 | 41 | 1010.3 |
| 20260504010904 | 53 | 238 | 0.0 | 0.0 | 0.00 | 0.00 | 0.00 | 40 | 1010.2 |
| 20260504010403 | 52 | 263 | 0.0 | 0.0 | 0.00 | 0.00 | 0.00 | 41 | 1010.2 |
| 20260504005904 | 53 | 268 | 0.0 | 0.0 | 0.00 | 0.00 | 0.00 | 42 | 1010.0 |
| 20260504004905 | 53 | 268 | 0.0 | 0.0 | 0.00 | 0.00 | 0.00 | 39 | 1010.0 |
| 20260504004404 | 54 | 268 | 0.0 | 0.0 | 0.00 | 0.00 | 0.00 | 38 | 1009.9 |
| 20260504003904 | 54 | 268 | 0.0 | 0.0 | 0.00 | 0.00 | 0.00 | 37 | 1009.8 |
| 20260504003405 | 55 | 268 | 0.0 | 0.0 | 0.00 | 0.00 | 0.00 | 36 | 1009.8 |
| 20260504002904 | 55 | 267 | 0.0 | 6.0 | 0.00 | 0.00 | 0.00 | 35 | 1009.8 |
| 20260504002405 | 55 | 270 | 0.0 | 3.0 | 0.00 | 0.00 | 0.00 | 35 | 1009.6 |
| 20260504001904 | 56 | 279 | 1.0 | 7.0 | 0.00 | 0.00 | 0.00 | 34 | 1009.5 |
| 20260504000406 | 57 | 282 | 1.0 | 7.0 | 0.00 | 0.00 | 0.00 | 32 | 1009.2 |